Wind_Speed
7 0 7 13 12 14 9 13 14 16 16 10 15 17 15 9 6 10 15 9 10 13 17 17 20 2 26 32 33 30 29 33 33 26 19 23 28 30 28 25 25 23 19 14
4 7 15 13 16 12 11 16 19 19 16 13 14 13 12 9 7 9 13 15 9 9 11 10 14 11 29 35 38 28 39 44 35 29 34 28 27 27 26 25 26 22 18 15
6 9 8 4 7 9 14 16 16 15 19 15 7 18 10 6 6 10 14 15 11 10 11 9 9 11 24 31 36 43 40 33 41 49 29 29 22 20 22 25 23 20 19 18
6 4 6 10 12 7 14 8 12 13 6 5 4 15 21 11 12 14 16 14 13 9 9 9 7 8 29 32 41 41 38 36 34 35 29 14 20 18 18 24 21 21 19 17
8 8 8 12 17 14 17 14 17 17 13 3 5 7 24 8 12 12 11 15 17 15 10 12 9 14 16 32 35 38 40 45 49 45 35 39 30 27 31 28 26 23 23 22
9 4 6 13 10 11 14 13 7 6 2 12 14 10 17 9 17 17 12 13 15 15 14 11 16 19 15 26 36 40 42 43 50 41 39 23 26 35 35 32 31 24 22 22
6 4 3 5 8 7 12 5 3 3 1 11 13 12 19 8 11 11 16 12 12 14 14 9 15 10 8 22 29 35 43 38 40 48 40 41 35 28 36 33 32 28 25 24
4 7 5 8 9 5 2 5 3 5 4 4 3 7 6 12 13 15 16 10 16 17 9 9 11 9 9 23 30 35 37 35 39 43 42 45 41 30 35 27 22 21 23 25
5 6 15 21 11 7 4 5 6 5 3 6 5 7 9 14 8 6 8 7 10 15 15 11 10 13 15 21 31 36 34 34 37 42 44 38 32 28 34 35 37 29 26 27
2 13 10 9 7 12 12 7 4 3 3 5 4 6 8 4 4 6 10 9 10 9 14 7 7 9 21 25 35 36 36 39 41 39 43 41 41 32 35 41 41 38 31 30
4 6 6 6 5 5 3 2 1 3 4 4 4 5 7 4 1 5 9 13 10 12 8 6 4 6 24 29 31 30 34 37 40 46 44 41 31 35 37 35 40 39 34 31
3 4 6 10 19 13 11 8 6 4 4 5 3 5 10 3 4 1 12 13 9 7 8 7 8 7 14 25 28 28 29 41 45 45 43 40 39 39 40 41 41 39 35 31
4 4 4 6 3 3 3 6 6 6 4 10 10 4 2 4 9 2 10 7 7 8 10 7 7 7 9 21 26 26 33 36 43 46 43 37 40 39 41 42 43 42 39 33
8 4 7 9 13 6 11 17 15 11 5 8 15 12 13 10 13 8 8 6 8 9 5 5 8 7 10 18 23 28 32 40 41 42 41 37 38 40 41 39 41 43 38 35
7 5 7 16 19 20 20 20 20 15 17 13 18 13 14 15 16 7 7 6 11 8 8 9 13 9 12 9 21 30 32 36 39 40 40 37 41 45 38 36 41 42 38 34
2 3 4 12 16 15 15 10 15 6 15 18 20 18 8 13 6 4 6 7 9 8 13 9 7 12 12 11 23 33 33 36 41 43 42 43 41 46 42 39 39 41 36 31
2 3 3 5 9 14 3 7 10 13 12 6 5 3 6 8 10 6 9 10 12 11 13 6 10 18 17 25 35 33 34 38 41 41 43 43 43 39 40 40 40 39 38 33
3 2 3 5 9 3 4 10 9 14 17 11 12 13 12 14 14 15 6 7 12 6 8 9 15 20 33 39 44 36 45 40 47 43 39 43 46 37 34 41 42 38 39 35
5 1 4 2 3 6 4 6 12 7 9 3 15 17 15 16 13 5 7 6 5 7 2 10 27 38 42 46 49 42 34 43 41 46 44 40 38 36 39 37 36 39 40 37
6 5 3 2 4 4 4 16 18 11 5 16 21 20 18 11 5 4 8 7 7 9 8 9 33 43 44 40 48 50 39 41 37 35 39 36 37 39 36 34 38 37 40 37
6 3 3 4 4 1 8 18 18 3 7 22 22 23 19 5 5 7 12 9 4 9 21 33 38 37 38 43 46 41 43 39 38 39 39 33 40 35 35 42 38 37 38 37
3 4 2 3 3 5 12 6 4 8 17 20 20 15 10 1 7 7 8 1 13 16 26 33 32 35 37 38 44 41 37 43 45 41 39 38 35 34 40 40 36 35 36 35
2 3 2 4 5 3 5 8 9 13 16 11 14 12 8 5 5 5 4 13 11 16 19 31 34 40 33 38 45 39 37 43 45 43 38 36 37 35 33 34 30 29 30 31
1 2 3 4 0 5 12 7 11 16 17 12 11 9 7 4 4 12 16 15 12 15 21 33 36 34 33 38 42 42 40 42 45 42 41 42 40 38 36 31 29 31 31 31
1 3 3 8 9 11 3 12 14 17 14 12 12 7 8 6 10 18 17 17 10 16 34 35 35 35 34 38 37 40 43 49 43 44 42 40 40 40 39 35 33 35 34 36
2 3 2 3 6 4 9 11 16 15 9 11 10 10 9 9 13 18 18 15 15 17 34 30 34 37 35 39 38 38 41 46 46 40 36 35 37 37 39 42 44 39 36 33
Wind_Direction
264 92 253 247 214 233 250 270 277 280 276 294 283 280 265 256 263 284 293 290 283 269 267 271 277 153 161 171 167 157 163 172 180 196 197 201 185 184 188 198 198 194 187 187
336 246 246 252 255 233 237 257 268 273 273 277 285 267 263 262 243 248 262 277 258 274 285 271 265 145 162 171 183 167 164 172 165 206 204 201 185 181 186 198 199 194 180 178
234 250 290 318 326 297 243 243 259 262 283 274 297 281 285 263 259 270 269 262 264 245 267 271 265 171 182 171 177 179 180 189 181 189 198 187 178 170 180 189 183 173 175 163
239 257 314 301 288 269 279 241 259 279 314 265 109 286 271 271 255 256 264 265 273 265 264 264 258 246 172 188 182 189 177 189 190 181 169 199 184 150 152 164 157 152 159 145
249 294 287 283 270 267 268 269 268 267 266 272 218 268 270 205 252 246 253 262 268 266 252 264 252 252 212 186 183 189 183 182 188 179 193 197 204 150 146 149 142 137 140 140
278 244 249 252 279 290 265 274 310 280 185 255 243 223 273 223 242 253 240 242 250 257 258 245 254 250 242 189 185 176 182 184 192 184 172 192 180 148 146 141 132 135 136 135
300 261 272 58 1 340 29 26 276 299 211 252 215 236 243 268 264 250 250 247 250 247 252 235 258 240 231 186 180 175 179 177 178 177 187 189 172 146 150 142 147 153 152 147
12 325 17 2 335 277 222 175 251 235 217 266 238 235 244 232 249 249 255 247 258 253 241 229 247 238 214 192 188 181 178 175 162 166 171 172 169 164 160 154 150 154 152 148
304 248 319 309 304 274 166 190 154 294 251 253 215 278 297 267 267 274 260 276 282 250 242 238 236 250 233 200 200 186 174 163 166 164 164 177 169 165 166 164 165 165 158 150
229 294 257 292 316 275 232 187 232 207 246 243 253 241 243 17 12 329 323 312 294 284 243 210 244 231 230 229 206 181 168 154 156 157 159 159 162 161 166 164 161 156 156 147
202 224 274 341 228 249 337 348 234 215 222 247 290 248 191 183 262 308 309 308 303 288 240 138 6 265 226 204 195 176 160 144 145 150 152 158 170 159 151 143 145 147 149 145
164 259 260 244 276 283 251 247 185 242 245 254 274 248 270 69 327 296 249 283 287 308 265 106 342 336 232 187 181 171 152 145 146 149 153 153 154 151 148 144 146 146 140 133
187 236 281 305 350 9 200 209 220 232 245 241 254 240 219 293 283 233 268 281 297 275 292 52 326 349 241 186 175 154 144 145 142 145 149 146 141 139 135 139 141 139 129 133
218 222 216 261 266 269 279 276 275 256 243 262 247 279 295 296 296 290 279 277 286 258 285 21 313 285 247 199 162 145 138 142 139 138 136 134 129 128 128 132 133 129 135 132
167 251 222 254 269 275 273 279 289 252 252 255 270 272 278 286 280 252 244 265 282 283 326 322 294 254 212 173 144 135 136 136 132 126 125 125 120 120 120 120 125 134 130 123
178 252 262 274 263 271 288 287 299 299 252 253 258 268 340 287 277 235 294 273 290 329 320 314 225 142 112 120 118 121 123 127 130 125 122 122 120 119 118 124 131 122 122 129
44 313 283 272 331 307 186 359 327 317 305 328 304 359 328 327 325 320 312 336 319 314 314 303 133 115 109 109 113 115 115 120 118 118 119 118 114 112 121 128 121 122 122 120
148 237 237 291 310 345 157 36 335 311 286 360 357 345 331 321 310 300 277 290 274 273 276 185 117 106 105 106 101 110 110 113 110 107 110 109 105 115 119 117 117 119 117 113
193 212 287 275 271 272 164 18 334 337 302 1 343 328 313 308 314 277 237 265 275 213 134 130 124 112 109 108 106 101 109 106 106 111 109 109 123 123 114 116 116 114 112 109
271 220 246 293 270 276 16 335 321 302 258 0 334 316 300 305 325 260 326 310 279 207 137 136 119 112 110 116 117 111 114 99 107 108 114 125 126 113 117 123 114 111 108 104
315 326 228 285 278 251 6 337 316 3 322 325 312 304 305 244 240 296 298 295 213 107 130 127 117 115 119 120 121 120 116 116 116 115 117 116 113 124 129 117 115 115 112 110
282 318 305 318 279 295 17 354 24 304 297 299 300 312 329 7 259 283 282 284 101 137 124 120 119 114 113 116 115 114 115 119 117 117 116 117 122 121 119 120 119 113 112 110
267 221 263 206 243 312 348 303 319 310 307 314 306 322 334 359 322 308 25 70 100 118 115 116 115 107 114 120 115 111 119 116 117 117 118 122 119 120 122 119 114 112 114 110
243 154 249 318 298 316 315 325 327 321 315 315 324 333 342 350 331 88 80 74 85 109 111 112 110 109 110 109 111 116 115 115 115 112 112 118 122 123 124 123 124 120 114 107
232 318 256 265 289 325 187 333 332 317 322 335 340 339 1 10 58 87 87 79 93 104 107 106 103 103 103 105 104 111 116 121 111 109 113 115 119 123 124 123 121 116 109 109
198 238 255 274 328 270 283 319 322 315 342 333 347 2 29 71 80 97 78 84 85 93 102 101 96 99 101 103 105 110 118 120 116 111 111 114 114 112 111 109 106 101 101 100
Height
760 774 782 771 766 761 766 770 768 758 750 751 746 741 729 719 717 717 708 709 707 701 690 690 690 701 705 705 708 713 716 724 740 754 753 754 751 750 752 757 761 766 771 775
769 774 757 752 752 757 762 761 761 751 745 743 739 736 722 718 717 711 706 700 705 699 692 689 688 699 702 703 704 716 721 724 723 742 749 755 749 747 749 756 762 767 772 775
768 757 747 748 754 752 753 760 757 754 738 734 740 730 726 712 710 706 702 695 694 696 691 688 686 692 699 702 705 707 715 723 727 734 749 747 748 748 750 755 761 768 772 774
756 745 746 749 751 750 754 741 741 740 748 759 738 743 718 714 711 705 698 695 692 689 685 681 683 685 693 696 699 705 708 715 723 732 735 742 737 742 748 757 765 769 773 775
758 750 750 749 743 738 741 733 734 734 740 747 743 748 693 709 707 700 697 689 683 679 681 678 678 678 685 689 694 699 705 710 718 726 729 736 741 741 746 758 765 773 775 775
749 739 741 735 730 728 722 730 735 735 743 747 731 739 695 709 698 689 687 684 679 675 672 672 671 673 677 681 688 694 698 703 707 721 725 726 741 729 747 753 762 774 778 776
753 743 733 729 737 731 730 748 753 762 763 732 715 724 700 690 684 684 680 677 675 670 667 669 664 668 671 676 682 687 690 699 707 717 726 723 734 723 745 748 756 771 776 779
779 763 741 735 744 743 743 750 752 740 747 736 715 721 702 682 674 672 669 670 668 665 665 664 661 660 662 670 675 679 684 693 705 712 716 724 729 735 738 747 759 773 779 780
774 763 742 738 735 735 742 753 744 744 735 730 719 699 681 672 674 672 671 668 666 657 656 657 655 651 656 664 667 672 679 688 697 704 714 723 733 743 746 749 755 771 779 782
772 763 743 736 735 726 729 726 745 741 734 729 708 699 695 679 677 676 673 671 665 656 650 651 649 650 646 649 658 664 673 683 695 705 710 722 733 741 745 749 750 760 779 780
768 770 750 748 739 733 734 736 734 738 735 729 717 706 679 677 674 679 675 665 659 653 647 645 647 647 645 647 656 660 671 681 692 700 714 723 736 741 744 748 758 767 778 782
765 767 759 740 719 721 721 725 736 737 736 718 713 700 668 673 672 669 672 666 657 651 639 631 642 648 644 642 651 659 669 678 685 699 712 722 734 740 745 752 763 771 778 785
768 763 751 739 729 721 720 721 726 728 728 715 710 694 673 673 671 665 663 657 654 648 639 627 643 644 642 637 645 656 668 680 686 698 712 724 731 739 747 758 766 772 773 787
753 764 751 737 724 722 732 721 722 725 714 700 689 688 681 672 666 663 661 654 651 642 635 634 642 643 640 634 639 652 668 678 688 699 711 723 729 739 751 763 767 766 780 785
748 747 747 737 731 726 723 717 709 710 703 698 680 686 678 671 662 659 653 649 645 636 630 631 637 636 632 635 637 648 666 677 688 700 712 725 732 742 757 766 769 775 779 785
750 743 739 725 718 712 706 714 705 692 690 684 674 679 681 664 657 651 649 646 643 637 624 629 627 623 627 635 641 656 671 680 689 700 714 727 738 745 757 770 778 769 781 796
760 755 744 719 714 712 710 714 705 695 685 682 677 684 682 672 663 660 651 641 637 634 628 623 624 621 629 639 648 667 680 689 696 707 718 731 740 749 762 776 773 781 789 797
758 755 744 728 718 725 700 705 710 705 687 686 692 692 687 683 675 668 656 649 643 636 635 631 629 632 639 651 662 680 687 701 704 714 728 725 732 756 778 776 781 792 791 798
743 748 738 729 723 706 692 713 718 710 693 692 694 689 686 679 672 657 651 648 644 644 629 633 635 637 650 660 674 689 695 701 712 723 732 735 756 772 774 788 792 796 797 803
741 742 742 731 720 709 719 719 709 704 692 694 696 687 679 679 675 658 648 642 641 640 639 638 642 645 654 671 675 688 704 701 718 731 741 761 767 766 782 795 796 801 802 809
749 747 752 733 724 705 725 719 705 700 703 704 693 679 664 674 664 654 644 637 633 625 633 643 651 656 670 678 685 694 704 720 731 735 745 767 764 783 798 792 798 804 809 815
751 755 759 752 735 722 728 720 725 726 716 707 690 676 665 666 660 653 643 637 632 638 637 650 660 669 681 687 688 701 716 721 730 747 762 772 783 791 795 800 809 811 813 817
749 755 758 753 747 732 730 731 729 724 713 699 687 680 673 666 659 651 642 637 640 632 648 659 665 671 694 703 701 712 723 726 740 756 771 783 790 795 801 804 809 817 823 825
749 754 751 749 733 733 734 729 728 719 712 699 691 683 675 669 661 653 651 654 657 659 662 668 675 685 698 705 711 722 730 738 747 761 772 780 789 797 803 809 817 824 826 826
754 756 749 740 732 735 728 729 727 716 708 698 695 687 679 671 663 661 664 670 672 665 668 678 683 695 708 716 726 734 741 747 757 764 776 787 793 800 810 820 825 827 830 833
756 751 749 742 740 741 734 730 726 718 709 702 698 691 684 677 673 672 674 675 682 677 680 691 699 709 721 726 736 745 754 757 761 774 787 797 804 812 818 822 829 834 839 841